<?xml version="1.0"?>
<gpx xmlns="http://www.topografix.com/GPX/1/1" xmlns:xsi="http://www.w3.org/2001/XMLSchema-instance" version="1.1" creator="GPX RubyGem 1.0.0 -- http://dougfales.github.io/gpx/" xsi:schemaLocation="http://www.topografix.com/GPX/1/1 http://www.topografix.com/GPX/1/1/gpx.xsd">
  <metadata>
    <name/>
    <time>2026-05-09T12:56:06+00:00</time>
    <bound minlat="90.0" minlon="180.0" maxlat="-90.0" maxlon="-180.0"/>
  </metadata>
  <trk>
    <name/>
    <trkseg>
      <trkpt lat="50.162854" lon="8.577083">
        <time>1970-01-01T00:00:00+00:00</time>
        <ele>156.0</ele>
      </trkpt>
      <trkpt lat="50.162717" lon="8.57728">
        <time>1970-01-01T00:00:00+00:00</time>
        <ele>155.0</ele>
      </trkpt>
      <trkpt lat="50.162459" lon="8.577744">
        <time>1970-01-01T00:00:00+00:00</time>
        <ele>153.0</ele>
      </trkpt>
      <trkpt lat="50.162389" lon="8.577631">
        <time>1970-01-01T00:00:00+00:00</time>
        <ele>153.0</ele>
      </trkpt>
      <trkpt lat="50.162166" lon="8.577415">
        <time>1970-01-01T00:00:00+00:00</time>
        <ele>155.0</ele>
      </trkpt>
      <trkpt lat="50.161982" lon="8.577176">
        <time>1970-01-01T00:00:00+00:00</time>
        <ele>156.0</ele>
      </trkpt>
      <trkpt lat="50.161397" lon="8.578168">
        <time>1970-01-01T00:00:00+00:00</time>
        <ele>156.0</ele>
      </trkpt>
      <trkpt lat="50.160816" lon="8.579264">
        <time>1970-01-01T00:00:00+00:00</time>
        <ele>157.0</ele>
      </trkpt>
      <trkpt lat="50.159606" lon="8.577638">
        <time>1970-01-01T00:00:00+00:00</time>
        <ele>160.0</ele>
      </trkpt>
      <trkpt lat="50.158358" lon="8.57597">
        <time>1970-01-01T00:00:00+00:00</time>
        <ele>161.0</ele>
      </trkpt>
      <trkpt lat="50.158059" lon="8.575559">
        <time>1970-01-01T00:00:00+00:00</time>
        <ele>162.0</ele>
      </trkpt>
      <trkpt lat="50.157288" lon="8.574362">
        <time>1970-01-01T00:00:00+00:00</time>
        <ele>162.0</ele>
      </trkpt>
      <trkpt lat="50.157183" lon="8.574473">
        <time>1970-01-01T00:00:00+00:00</time>
        <ele>162.0</ele>
      </trkpt>
      <trkpt lat="50.156658" lon="8.573662">
        <time>1970-01-01T00:00:00+00:00</time>
        <ele>162.0</ele>
      </trkpt>
      <trkpt lat="50.156658" lon="8.573662">
        <time>1970-01-01T00:00:00+00:00</time>
        <ele>162.0</ele>
      </trkpt>
      <trkpt lat="50.157183" lon="8.574473">
        <time>1970-01-01T00:00:00+00:00</time>
        <ele>162.0</ele>
      </trkpt>
      <trkpt lat="50.157288" lon="8.574362">
        <time>1970-01-01T00:00:00+00:00</time>
        <ele>162.0</ele>
      </trkpt>
      <trkpt lat="50.158059" lon="8.575559">
        <time>1970-01-01T00:00:00+00:00</time>
        <ele>162.0</ele>
      </trkpt>
      <trkpt lat="50.158358" lon="8.57597">
        <time>1970-01-01T00:00:00+00:00</time>
        <ele>161.0</ele>
      </trkpt>
      <trkpt lat="50.159606" lon="8.577638">
        <time>1970-01-01T00:00:00+00:00</time>
        <ele>160.0</ele>
      </trkpt>
      <trkpt lat="50.160816" lon="8.579264">
        <time>1970-01-01T00:00:00+00:00</time>
        <ele>157.0</ele>
      </trkpt>
      <trkpt lat="50.161397" lon="8.578168">
        <time>1970-01-01T00:00:00+00:00</time>
        <ele>156.0</ele>
      </trkpt>
      <trkpt lat="50.161982" lon="8.577176">
        <time>1970-01-01T00:00:00+00:00</time>
        <ele>156.0</ele>
      </trkpt>
      <trkpt lat="50.162166" lon="8.577415">
        <time>1970-01-01T00:00:00+00:00</time>
        <ele>155.0</ele>
      </trkpt>
      <trkpt lat="50.162389" lon="8.577631">
        <time>1970-01-01T00:00:00+00:00</time>
        <ele>153.0</ele>
      </trkpt>
      <trkpt lat="50.162459" lon="8.577744">
        <time>1970-01-01T00:00:00+00:00</time>
        <ele>153.0</ele>
      </trkpt>
      <trkpt lat="50.162717" lon="8.57728">
        <time>1970-01-01T00:00:00+00:00</time>
        <ele>155.0</ele>
      </trkpt>
      <trkpt lat="50.162854" lon="8.577083">
        <time>1970-01-01T00:00:00+00:00</time>
        <ele>156.0</ele>
      </trkpt>
    </trkseg>
  </trk>
</gpx>
